Flag Weather past 2 weeks in Sherbrooke, Quebec, Canada

Now
28 °F

Light snow. Overcast.


Feels Like: 23 °F
Forecast: N/A
Wind: 5 mph from North

Location: Sherbrooke

Current Time: Nov 26, 2014 at 6:19:40 PM

Latest Report: Nov 26, 2014 at 6:00 PM


Visibility: 1 mi

Pressure: 30.13 "Hg

Humidity: 93%

Dew point: 27 °F

Location of SherbrookeLocation

Historic Weather in Sherbrooke — Graph

°F

Sherbrooke temperature yesterday

Maximum temperature yesterday: 52 °F (at 12:00 AM)
Minimum temperature yesterday: 39 °F (at 11:00 PM)
Average temperature yesterday: 44 °F

Past Weeks' High & Low Weather Summary

 TemperatureHumidityPressure
High63 °F (Nov 24, 3:00 PM)100% (Nov 12, 1:00 AM)30.33 "Hg (Nov 12, 1:00 AM)
Low10 °F (Nov 19, 10:00 PM)47% (Nov 22, 2:00 PM)29.38 "Hg (Nov 24, 5:54 PM)
Average31 °F80%29.92 "Hg
* Reported Nov 11 7:00 PM — Nov 26 5:00 PM, Sherbrooke, Weather by CustomWeather, © 2014

Note: Actual official high and low records may vary slightly from our data, if they occured in-between our weather recording intervals... More about our weather records

Advertising

Sherbrooke weather history for previous 24 hours

 ConditionsComfort  
Time TempWeatherWind HumidityBarometerVisibility
5:00 PM
Nov 26
28 °FLight snow. Overcast.3 mph93%30.15 "Hg1 mi
4:00 PM30 °FMostly cloudy.No wind75%30.17 "Hg9 mi
3:00 PM30 °FMostly cloudy.2 mph75%30.16 "Hg9 mi
2:00 PM32 °FMostly cloudy.2 mph64%30.16 "Hg9 mi
1:00 PM32 °FOvercast.2 mph64%30.18 "Hg9 mi
12:00 PM32 °FOvercast.2 mph64%30.18 "Hg9 mi
11:00 AM32 °FPartly sunny.6 mph64%30.24 "Hg9 mi
10:00 AM32 °FSunny.5 mph69%30.24 "Hg9 mi
9:00 AM32 °FSunny.7 mph69%30.27 "Hg9 mi
8:00 AM32 °FPartly sunny.9 mph64%30.25 "Hg9 mi
7:00 AM32 °FMostly cloudy.7 mph75%30.21 "Hg9 mi
6:00 AM34 °FOvercast.7 mph70%30.21 "Hg9 mi
5:00 AM34 °FOvercast.9 mph70%30.20 "Hg9 mi
4:00 AM34 °FOvercast.10 mph70%30.19 "Hg9 mi
3:00 AM34 °FPassing clouds.10 mph70%30.16 "Hg9 mi
2:00 AM36 °FOvercast.20 mph65%30.15 "Hg9 mi
1:00 AM36 °FPassing clouds.15 mph65%30.11 "Hg9 mi
12:00 AM37 °FOvercast.18 mph70%30.06 "Hg9 mi
11:00 PM
Nov 25
39 °FMostly cloudy.13 mph61%30.02 "Hg9 mi
10:00 PM41 °FMostly cloudy.17 mph61%29.98 "Hg9 mi
9:00 PM41 °FMostly cloudy.15 mph66%29.96 "Hg9 mi
8:00 PM41 °FOvercast.15 mph57%29.93 "Hg9 mi
7:00 PM41 °FOvercast.14 mph57%29.91 "Hg9 mi
6:00 PM41 °FMostly cloudy.9 mph57%29.90 "Hg9 mi
Weather by CustomWeather, © 2014

See weather overviewHow to use our weather pages